Regional Weather Roundup
Issued by NWS

Home | Current Version | Previous Version | Text Only | Print | Product List | Glossary On
Versions: 1 2 3 4 5 6 7 8 9 10 11 12 13 14 15 16 17 18 19 20 21 22 23 24 25 26 27 28 29 30 31 32 33 34 35 36 37 38 39 40 41 42 43 44 45 46 47 48 49 50
000
ASUS45 KBOI 300410
RWRID

IDAHO REGIONAL WEATHER ROUNDUP
NATIONAL WEATHER SERVICE BOISE ID
1000 PM MDT WED JUL 29 2015

NOTE: "FAIR" INDICATES FEW OR NO CLOUDS BELOW 12000 FEET
WITH NO SIGNIFICANT WEATHER AND/OR OBSTRUCTIONS TO VISIBILITY

IDZ012-014-300500-
SOUTHWEST IDAHO


CITY           SKY/WX    TMP DP  RH WIND       PRES   REMARKS
BOISE          CLEAR     79  37  22 W6        30.14R
CALDWELL       CLEAR     75  37  25 W5        30.14R
$$

IDZ016-017-300500-
SOUTHCENTRAL IDAHO


CITY           SKY/WX    TMP DP  RH WIND       PRES   REMARKS
BURLEY         CLEAR     65  47  52 CALM      30.21R
JEROME         CLEAR     63  40  42 E3        30.22R
TWIN FALLS     CLEAR     62  29  28 CALM      30.20R
$$

IDZ019>023-300500-
SOUTHEAST IDAHO


CITY           SKY/WX    TMP DP  RH WIND       PRES   REMARKS
IDAHO FALLS    CLEAR     60  45  57 CALM      30.28R
POCATELLO      CLEAR     64  40  41 E6        30.26R
REXBURG        CLEAR     65  43  44 CALM      30.30R
$$

IDZ006-010-011-018-031-032-300500-
CENTRAL IDAHO MOUNTAINS


CITY           SKY/WX    TMP DP  RH WIND       PRES   REMARKS
MCCALL         CLEAR     63  39  41 NE5       30.27R
HAILEY         CLEAR     61  39  44 CALM      30.31R
STANLEY          N/A     57  33  40 S3        30.37R
SALMON         CLEAR     66  45  45 S3        30.20R
CHALLIS        CLEAR     68  40  35 NW9       30.26R
$$

IDZ002-004-006-007-026-300500-
NORTHERN IDAHO


CITY           SKY/WX    TMP DP  RH WIND       PRES   REMARKS
LEWISTON       CLEAR     84  32  15 CALM      30.07R
LOWELL           N/A     65  52  62 N3        30.13R
COEUR D`ALENE  CLEAR     75  34  22 S5        30.11R
MULLAN PASS    CLEAR     60  30  32 NW5       30.35R
$$


USA.gov is the U.S. government's official web portal to all federal, state and local government web resources and services.